Appleton, WI

2:24 AM CDT on April 24, 2018 (GMT -0500)
Outagamie County Regional

Weather History for KATW - August, 2013

Change the Weather History Date:

Wednesday, August 7, 2013

  Actual Average Record
Temperature  
Mean Temperature 66 °F -  
Max Temperature 75 °F 80 °F 96 °F (2001)
Min Temperature 57 °F 61 °F 47 °F (1990)
Cooling Degree Days 1    
Growing Degree Days 16 (Base 50)    
Moisture  
Dew Point 59 °F    
Average Humidity 85    
Maximum Humidity 100    
Minimum Humidity 47    
Precipitation  
Precipitation 0.26 in - - ()
Sea Level Pressure  
Sea Level Pressure 29.86 in    
Wind  
Wind Speed 10 mph (NW)    
Max Wind Speed 18 mph    
Max Gust Speed 32 mph    
Visibility 9 miles    
Events Fog , Rain , Thunderstorm    
Averages and records for this station are not official NWS values.
T = Trace of Precipitation, MM = Missing Value Source: NWS Daily Summary

Daily Weather History Graph

Daily Weather History Graph

Search for Another Location

Airport or City:

Astronomy

Aug. 07, 2013 Rise Set
Actual Time 5:48 AM CDT 8:10 PM CDT
Civil Twilight 5:16 AM CDT 8:42 PM CDT
Nautical Twilight 4:35 AM CDT 9:22 PM CDT
Astronomical Twilight 3:50 AM CDT 10:07 PM CDT
Moon 6:41 AM CDT (8/7) 8:11 PM CDT (8/7)
Length of Visible Light 15h 26m
Length of Day
14h 21m
New Moon, 1% of the Moon is Illuminated
Aug 7
New Moon
Aug 14
First Quarter
Aug 20
Full
Aug 28
Last Quarter
Sep 5
New

Hourly Weather History & Observations

Time (CDT) Temp. Dew Point Humidity Pressure Visibility Wind Dir Wind Speed Gust Speed Precip Events Conditions
12:15 AM 71.6 °F 66.2 °F 83% 29.76 in 10.0 mi SSW 15.0 mph 19.6 mph N/A   Clear
12:35 AM 71.6 °F 66.2 °F 83% 29.81 in 10.0 mi WSW 18.4 mph 28.8 mph N/A Thunderstorm Mostly Cloudy
12:55 AM 57.2 °F 55.4 °F 94% 29.85 in 4.0 mi NW 15.0 mph 32.2 mph 0.18 in Rain , Thunderstorm Heavy Thunderstorms and Rain
1:15 AM 59.0 °F 57.2 °F 94% 29.82 in 10.0 mi North 9.2 mph - 0.03 in Rain , Thunderstorm Thunderstorms and Rain
1:35 AM 59.0 °F 59.0 °F 100% 29.78 in 10.0 mi SE 6.9 mph - 0.08 in Rain , Thunderstorm Rain
1:55 AM 59.0 °F 59.0 °F 100% 29.76 in 10.0 mi East 6.9 mph - 0.08 in   Light Drizzle
2:15 AM 59.0 °F 59.0 °F 100% 29.77 in 10.0 mi SSE 4.6 mph - N/A   Mostly Cloudy
2:35 AM 59.0 °F 59.0 °F 100% 29.78 in 10.0 mi SSW 5.8 mph - N/A   Mostly Cloudy
2:55 AM 59.0 °F 59.0 °F 100% 29.78 in 10.0 mi SSW 5.8 mph - N/A Thunderstorm Mostly Cloudy
3:15 AM 59.0 °F 59.0 °F 100% 29.77 in 10.0 mi SW 5.8 mph - N/A Thunderstorm Mostly Cloudy
3:35 AM 59.0 °F 59.0 °F 100% 29.75 in 10.0 mi SSW 8.1 mph - N/A   Scattered Clouds
3:55 AM 59.0 °F 59.0 °F 100% 29.75 in 10.0 mi SSW 4.6 mph - N/A   Scattered Clouds
4:15 AM 59.0 °F 59.0 °F 100% 29.77 in 10.0 mi South 5.8 mph - N/A   Clear
4:35 AM 59.0 °F 59.0 °F 100% 29.77 in 10.0 mi Calm Calm - N/A   Clear
4:55 AM 59.0 °F 57.2 °F 94% 29.76 in 10.0 mi West 4.6 mph - N/A   Clear
5:15 AM 57.2 °F 55.4 °F 94% 29.76 in 10.0 mi West 8.1 mph - N/A   Clear
5:45 AM 57.2 °F 57.2 °F 100% 29.77 in 7.0 mi WNW 8.1 mph - N/A Fog Patches of Fog
6:45 AM 59.0 °F 59.0 °F 100% 29.79 in 7.0 mi Variable 5.8 mph - N/A   Scattered Clouds
7:45 AM 60.8 °F 60.8 °F 100% 29.81 in 7.0 mi West 10.4 mph - N/A   Mostly Cloudy
8:00 AM 60.8 °F 59.0 °F 94% 29.81 in 5.0 mi NW 10.4 mph - N/A   Overcast
8:45 AM 60.8 °F 60.8 °F 100% 29.82 in 5.0 mi NNW 8.1 mph - N/A   Overcast
9:45 AM 64.4 °F 60.8 °F 88% 29.86 in 7.0 mi NNW 8.1 mph - N/A   Overcast
10:45 AM 66.2 °F 62.6 °F 88% 29.86 in 10.0 mi NW 8.1 mph - N/A   Overcast
11:30 AM 66.2 °F 60.8 °F 83% 29.88 in 10.0 mi NNW 6.9 mph - N/A   Overcast
11:45 AM 66.2 °F 60.8 °F 83% 29.89 in 10.0 mi NW 10.4 mph - N/A   Overcast
12:45 PM 69.8 °F 62.6 °F 78% 29.89 in 10.0 mi NNW 6.9 mph - N/A   Overcast
1:25 PM 69.8 °F 60.8 °F 73% 29.90 in 10.0 mi WNW 8.1 mph - N/A   Mostly Cloudy
1:45 PM 71.6 °F 60.8 °F 69% 29.90 in 10.0 mi WNW 8.1 mph - N/A   Mostly Cloudy
2:45 PM 75.2 °F 60.8 °F 61% 29.90 in 10.0 mi West 8.1 mph - N/A   Mostly Cloudy
3:45 PM 75.2 °F 59.0 °F 57% 29.89 in 10.0 mi NNW 13.8 mph - N/A   Mostly Cloudy
4:45 PM 75.2 °F 57.2 °F 53% 29.90 in 10.0 mi NNW 12.7 mph - N/A   Mostly Cloudy
5:45 PM 75.2 °F 53.6 °F 47% 29.90 in 10.0 mi NNW 12.7 mph - N/A   Scattered Clouds
6:45 PM 71.6 °F 57.2 °F 60% 29.92 in 10.0 mi NNW 8.1 mph - N/A   Scattered Clouds
7:45 PM 69.8 °F 57.2 °F 64% 29.94 in 10.0 mi North 6.9 mph - N/A   Scattered Clouds
8:45 PM 66.2 °F 57.2 °F 73% 29.96 in 10.0 mi NNW 4.6 mph - N/A   Mostly Cloudy
9:45 PM 64.4 °F 59.0 °F 83% 29.99 in 10.0 mi North 8.1 mph - N/A   Mostly Cloudy
10:45 PM 64.4 °F 55.4 °F 73% 30.01 in 10.0 mi NNE 9.2 mph - N/A   Mostly Cloudy
10:55 PM 62.6 °F 55.4 °F 77% 30.02 in 10.0 mi NNE 8.1 mph - N/A   Clear
11:15 PM 60.8 °F 53.6 °F 77% 30.02 in 10.0 mi NNE 6.9 mph - N/A   Clear
11:35 PM 60.8 °F 53.6 °F 77% 30.02 in 10.0 mi NNE 6.9 mph - N/A   Clear
11:55 PM 60.8 °F 53.6 °F 77% 30.02 in 10.0 mi NNE 6.9 mph - N/A   Clear